Location: Shady Grove
(34.7498°N, 89.0528°W)
Time: 12:13:45
(UTC+00:00)

Daily predictions for brighter satellites

Satellite Brightness Start Highest point End
(mag) Time Altitude Azimuth Time Altitude Azimuth Time Altitude Azimuth
STARLINK-1102 4.2 12:02:30 10° WSW 12:06:13 37° NW 12:09:58 10° NNE
COSMO-SKYMED 1 3.6 12:03:57 10° SSW 12:07:28 24° W 12:11:01 10° NW
STARLINK-1113 4.3 12:04:19 10° WSW 12:07:56 34° NW 12:11:36 10° NNE
Envisat 4.5 12:03:10 10° NNE 12:08:01 43° E 12:12:49 10° S
Cosmos 676 Rocket 4.2 12:04:40 10° SSW 12:09:49 52° WNW 12:15:02 10° N
ATLAS 2A CENTAUR R/B 3.4 12:07:39 10° SW 12:10:13 19° S 12:15:28 10° SE
STARLINK-1111 4.3 12:07:10 10° WSW 12:10:50 34° NW 12:14:30 10° NNE
USA 116 4.0 12:09:02 10° SSW 12:12:04 31° W 12:14:55 10° NW
STARLINK-1119 4.4 12:08:49 10° WSW 12:12:23 32° NW 12:15:58 10° NNE
Cosmos 2061 Rocket 4.0 12:06:45 10° N 12:12:58 71° W 12:19:08 10° S
Cosmos 1656 Rocket 4.1 12:07:22 10° NNW 12:13:03 72° ENE 12:18:43 10° SSE
STARLINK-1073 4.4 12:11:50 10° W 12:15:26 31° NW 12:19:03 10° NNE
Milstar 3 4.4 12:15:21 10° W 12:27:57 42° SSW 12:35:25 10° SE
